Regional Weather Roundup
Issued by NWS

Home | Current Version | Previous Version | Graphics & Text | Print | Product List | Glossary On
Versions: 1 2 3 4 5 6 7 8 9 10 11 12 13 14 15 16 17 18 19 20 21 22 23 24 25 26 27 28 29 30 31 32 33 34 35 36 37 38 39 40 41 42 43 44 45 46 47 48 49 50
000
ASUS43 KOAX 110002
RWRNE

WEATHER ROUNDUP FOR NEBRASKA
NATIONAL WEATHER SERVICE OMAHA NE
600 PM CST WED FEB 10 2016

NOTES: SATELLITE DATA IS BEING USED TO AUGMENT CLOUD COVER ABOVE
       12000 FEET.
       "FAIR" INDICATES FEW OR NO CLOUDS BELOW 12,000 FEET WITH NO
       SIGNIFICANT WEATHER AND/OR OBSTRUCTIONS TO VISIBILITY.

  * THESE STATIONS DO NOT REPORT WEATHER SUCH AS RAIN...SNOW OR FOG.

NEZ001>004-019>022-054>056-110100-
NEBRASKA PANHANDLE

CITY           SKY/WX    TMP DP  RH WIND       PRES   REMARKS
SCOTTSBLUFF    CLOUDY    52  27  38 NW12      30.06R
6HR MIN TEMP:  52; 6HR MAX TEMP:  62;

ALLIANCE       CLOUDY    40  31  70 W14       30.00R WCI  32
6HR MIN TEMP:  39; 6HR MAX TEMP:  51;

CHADRON        PTCLDY    54  27  35 N13       30.01R
6HR MIN TEMP:  54; 6HR MAX TEMP:  63;

KIMBALL        CLOUDY    45  26  46 W21       30.10R
SIDNEY         CLOUDY    43  29  57 NW14      30.05R
6HR MIN TEMP:  43; 6HR MAX TEMP:  52;

$$

NEZ057>060-069>072-079>082-110100-
SOUTHWEST NEBRASKA

CITY           SKY/WX    TMP DP  RH WIND       PRES   REMARKS
NORTH PLATTE   CLEAR     43  32  65 N6        29.96R
6HR MIN TEMP:  41; 6HR MAX TEMP:  52;

IMPERIAL       CLOUDY    46  29  51 W12       29.99S
6HR MIN TEMP:  45; 6HR MAX TEMP:  52;

MCCOOK         CLEAR     49  30  48 NW12G18   29.96S
6HR MIN TEMP:  46; 6HR MAX TEMP:  53;

$$

NEZ005>010-023>029-035>040-094-110100-
NORTH CENTRAL NEBRASKA

CITY           SKY/WX    TMP DP  RH WIND       PRES   REMARKS
VALENTINE      CLEAR     45  31  58 N12       29.98R
6HR MIN TEMP:  45; 6HR MAX TEMP:  56;

AINSWORTH      CLOUDY    42  31  65 N10       29.97R
BROKEN BOW     CLEAR     50  27  40 N14       29.93R
6HR MIN TEMP:  48; 6HR MAX TEMP:  59;

ORD            CLEAR     43  31  62 N9        29.94R
6HR MIN TEMP:  43; 6HR MAX TEMP:  56;

$$

NEZ041-046>049-061>064-073>077-083>087-110100-
SOUTH CENTRAL NEBRASKA

CITY           SKY/WX    TMP DP  RH WIND       PRES   REMARKS
GRAND ISLAND   CLEAR     40  31  70 SW9       29.92R WCI  34
6HR MIN TEMP:  40; 6HR MAX TEMP:  49;

HASTINGS       CLEAR     43  31  62 W8        29.91R
6HR MIN TEMP:  42; 6HR MAX TEMP:  47;

HEBRON         CLEAR     41  33  73 CALM      29.93R
KEARNEY *      CLOUDY    43  32  65 W8        29.93R
$$

NEZ011>018-030>034-042>045-110100-
NORTHEAST NEBRASKA

CITY           SKY/WX    TMP DP  RH WIND       PRES   REMARKS
NORFOLK        CLOUDY    31  24  75 NE7       29.98R WCI  24
6HR MIN TEMP:  31; 6HR MAX TEMP:  38;

BLAIR          CLEAR     32  25  75 NE13      29.97R WCI  22
COLUMBUS *     CLEAR     30  19  64 E6        29.98R WCI  24
FREMONT        CLEAR     32  22  68 NE7       29.98R WCI  26
TEKAMAH        MOCLDY    26  21  81 E12       30.02R WCI  16
6HR MIN TEMP:  26; 6HR MAX TEMP:  33;

$$

NEZ050>053-065>068-078-088>093-110100-
SOUTHEAST NEBRASKA

CITY           SKY/WX    TMP DP  RH WIND       PRES   REMARKS
LINCOLN        CLEAR     34  27  75 NE6       29.97R WCI  29
6HR MIN TEMP:  34; 6HR MAX TEMP:  42;

OMAHA EPPLEY   PTCLDY    32  24  72 NE14      30.00R WCI  22
6HR MIN TEMP:  32; 6HR MAX TEMP:  37;

BEATRICE       CLEAR     39  31  72 NE8       29.94R WCI  33
FALLS CITY     CLEAR     42  24  49 NE8       29.94R
6HR MIN TEMP:  40; 6HR MAX TEMP:  53;

$$

NEZ044-045-051>053-067-110100-
OMAHA AREA

CITY           SKY/WX    TMP DP  RH WIND       PRES   REMARKS
OMAHA EPPLEY   PTCLDY    32  24  72 NE14      30.00R WCI  22
6HR MIN TEMP:  32; 6HR MAX TEMP:  37;

BLAIR          CLEAR     32  25  75 NE13      29.97R WCI  22
FREMONT        CLEAR     32  22  68 NE7       29.98R WCI  26
OFFUTT AFB     CLEAR     34  26  71 NE9       29.98R WCI  27
$$



USA.gov is the U.S. government's official web portal to all federal, state and local government web resources and services.